Location: Blue Pit
(43.1414°N, 93.2208°W)
Time: 23:41:02
(UTC+00:00)

COSMO-SKYMED 1 - Pass Details

Date: 18 November 2025
Orbit: 579 x 581 km, 97.9° (Epoch: 14 December)

Event Time Altitude Azimuth Distance (km) Brightness Sun altitude
Rises 12:09:18 0° 185° (S) 2,789 6.1 -11.1°
Reaches altitude 10° 12:11:34 10° 193° (SSW) 1,894 5.1 -10.7°
Maximum altitude 12:15:24 38° 262° (W) 899 3.0 -10.1°
Drops below altitude 10° 12:19:16 10° 331° (NNW) 1,908 4.6 -9.4°
Sets 12:21:33 0° 340° (NNW) 2,812 5.6 -9.0°
